KC0AFB Weather Reports


Display with metric or nautical units.
time (UTC)temp
F
wind
direction
speed
MPH
gust
MPH
rain 1hr
in
rain 24hr
in
rain mn
in
humidity
%
barometer
mb
20260904032222 68 17 2.0 2.0 0.00 0.00 0.00 86 1011.2
20260904031717 68 26 2.0 2.0 0.00 0.00 0.00 86 1011.3
20260904031213 69 30 2.0 2.0 0.00 0.00 0.00 84 1011.2
20260904030708 71 45 1.0 1.0 0.00 0.00 0.00 82 1011.3
20260904030203 70 45 3.0 5.0 0.00 0.00 0.00 83 1011.3
20260904025700 69 45 2.0 2.0 0.00 0.00 0.00 84 1011.2
20260904025154 70 60 3.0 3.0 0.00 0.00 0.00 83 1010.9
20260904024650 71 60 2.0 2.0 0.00 0.00 0.00 82 1010.9
20260904024145 70 46 3.0 3.0 0.00 0.00 0.00 83 1010.8
20260904023641 70 58 2.0 2.0 0.00 0.00 0.00 84 1010.9
20260904023137 70 56 3.0 3.0 0.00 0.00 0.00 83 1010.9
20260904022637 70 46 3.0 3.0 0.00 0.00 0.00 83 1010.8
20260904022134 70 52 2.0 2.0 0.00 0.00 0.00 84 1010.9
20260904021630 70 47 2.0 2.0 0.00 0.00 0.00 83 1010.7
20260904021125 69 35 2.0 2.0 0.00 0.00 0.00 85 1010.9
20260904020620 70 61 2.0 2.0 0.00 0.00 0.00 85 1010.8
20260904020109 70 79 2.0 2.0 0.00 0.00 0.00 84 1010.9
20260904015603 70 52 2.0 2.0 0.00 0.00 0.00 84 1010.8
20260904015102 71 70 2.0 2.0 0.00 0.00 0.00 83 1010.7
20260904014556 71 74 1.0 1.0 0.00 0.00 0.00 82 1010.5
20260904014052 71 60 1.0 1.0 0.00 0.00 0.00 82 1010.4
20260904013548 71 57 1.0 2.0 0.00 0.00 0.00 83 1010.5
20260904013044 71 60 1.0 1.0 0.00 0.00 0.00 83 1010.2
20260904012544 71 57 1.0 1.0 0.00 0.00 0.00 82 1010.2
20260904012038 72 63 2.0 2.0 0.00 0.00 0.00 81 1010.3
20260904011537 72 71 0.0 0.0 0.00 0.00 0.00 82 1010.1
20260904011033 73 72 0.0 0.0 0.00 0.00 0.00 81 1010.2
20260904010529 73 87 0.0 0.0 0.00 0.00 0.00 80 1010.0
20260904010025 74 87 0.0 0.0 0.00 0.00 0.00 79 1010.1
20260904005525 75 86 1.0 1.0 0.00 0.00 0.00 77 1009.9
20260904005021 76 98 0.0 0.0 0.00 0.00 0.00 76 1010.0
20260904004516 76 78 0.0 1.0 0.00 0.00 0.00 76 1009.7
20260904004016 77 103 1.0 1.0 0.00 0.00 0.00 74 1010.0
20260904003513 77 79 0.0 0.0 0.00 0.00 0.00 74 1009.8
20260904003008 78 152 1.0 1.0 0.00 0.00 0.00 71 1009.7
20260904002504 78 80 1.0 1.0 0.00 0.00 0.00 72 1010.0
20260904002003 78 101 0.0 0.0 0.00 0.00 0.00 70 1009.8
20260904001459 78 79 1.0 1.0 0.00 0.00 0.00 71 1009.8
20260904000959 79 115 0.0 0.0 0.00 0.00 0.00 70 1009.8
20260904000458 79 115 0.0 0.0 0.00 0.00 0.00 71 1009.8
20260903235954 80 121 0.0 0.0 0.00 0.00 0.00 68 1010.0
20260903235449 79 120 0.0 1.0 0.00 0.00 0.00 69 1009.9
20260903234943 79 181 1.0 1.0 0.00 0.00 0.00 69 1009.8
20260903234440 78 187 2.0 2.0 0.00 0.00 0.00 70 1009.9
20260903233936 78 141 3.0 3.0 0.00 0.00 0.00 71 1009.9
20260903233431 78 104 2.0 2.0 0.00 0.00 0.00 71 1009.8
20260903232926 78 115 0.0 1.0 0.00 0.00 0.00 70 1009.6
20260903232420 79 132 2.0 2.0 0.00 0.00 0.00 70 1009.6
20260903231915 78 169 3.0 5.0 0.00 0.00 0.00 70 1009.5
20260903231410 78 107 3.0 3.0 0.00 0.00 0.00 71 1009.5
20260903230905 78 150 4.0 5.0 0.00 0.00 0.00 71 1009.6
20260903230400 77 155 3.0 3.0 0.00 0.00 0.00 72 1009.0
20260903225856 78 147 6.0 7.0 0.00 0.00 0.00 73 1009.0
20260903225352 78 102 7.0 8.0 0.00 0.00 0.00 72 1009.0
20260903224847 78 93 3.0 3.0 0.00 0.00 0.00 72 1009.2
20260903224338 78 122 4.0 5.0 0.00 0.00 0.00 72 1008.9
20260903223833 78 61 4.0 5.0 0.00 0.00 0.00 72 1009.2
20260903223332 78 74 3.0 3.0 0.00 0.00 0.00 72 1009.0
20260903222827 77 52 4.0 5.0 0.00 0.00 0.00 73 1008.9
20260903222327 78 68 3.0 5.0 0.00 0.00 0.00 72 1008.9
20260903221821 78 101 4.0 5.0 0.00 0.00 0.00 73 1008.9
20260903221320 77 108 2.0 2.0 0.00 0.00 0.00 73 1008.9
20260903220818 77 107 1.0 1.0 0.00 0.00 0.00 74 1008.8
20260903220312 76 106 3.0 3.0 0.00 0.00 0.00 74 1008.8
20260903215811 77 111 4.0 6.0 0.00 0.00 0.00 75 1008.8
20260903215308 77 39 5.0 6.0 0.00 0.00 0.00 75 1008.7
20260903214805 77 91 2.0 2.0 0.00 0.00 0.00 76 1008.6
20260903214301 77 106 3.0 5.0 0.00 0.00 0.00 76 1008.7
20260903213755 77 78 5.0 7.0 0.00 0.00 0.00 76 1008.8
20260903213251 76 98 4.0 5.0 0.00 0.00 0.00 76 1008.7
20260903212741 77 84 4.0 7.0 0.00 0.00 0.00 76 1008.8
20260903212238 76 104 3.0 5.0 0.00 0.00 0.00 77 1008.7
20260903211736 76 88 4.0 5.0 0.00 0.00 0.00 77 1008.6
20260903211234 75 60 3.0 3.0 0.00 0.00 0.00 78 1008.6
20260903210729 76 31 3.0 5.0 0.00 0.00 0.00 77 1008.7
20260903210225 75 50 4.0 6.0 0.00 0.00 0.00 79 1008.5
20260903205718 75 28 6.0 7.0 0.00 0.00 0.00 79 1008.6
20260903205217 75 62 4.0 6.0 0.00 0.00 0.00 80 1008.7
20260903204713 75 20 4.0 5.0 0.00 0.00 0.00 79 1008.8
20260903204210 74 77 4.0 7.0 0.00 0.00 0.00 79 1008.7
20260903203704 73 80 3.0 5.0 0.00 0.00 0.00 81 1008.7
20260903203200 72 48 6.0 6.0 0.00 0.00 0.00 82 1008.7
20260903202654 72 38 5.0 7.0 0.00 0.00 0.00 82 1009.0
20260903202150 72 58 3.0 5.0 0.00 0.00 0.00 82 1009.3
20260903201643 73 28 3.0 3.0 0.00 0.00 0.00 82 1008.8
20260903201138 72 44 5.0 7.0 0.00 0.00 0.00 83 1008.7
20260903200633 72 27 4.0 6.0 0.00 0.00 0.00 84 1008.7
20260903200129 71 48 4.0 6.0 0.00 0.00 0.00 83 1008.6
20260903195624 71 28 5.0 6.0 0.00 0.00 0.00 84 1008.8
20260903195120 71 46 3.0 5.0 0.00 0.00 0.00 84 1008.5
20260903194614 71 74 2.0 3.0 0.00 0.00 0.00 84 1008.3
20260903194114 71 31 5.0 6.0 0.00 0.00 0.00 84 1008.1
20260903193611 71 48 5.0 8.0 0.00 0.00 0.00 84 1008.3
20260903193106 71 40 3.0 6.0 0.00 0.00 0.00 85 1008.7
20260903192603 71 32 5.0 8.0 0.00 0.00 0.00 85 1008.4
20260903192103 71 30 5.0 6.0 0.00 0.00 0.00 84 1008.7
20260903191559 71 35 2.0 3.0 0.00 0.00 0.00 86 1008.6
20260903191054 70 31 4.0 5.0 0.00 0.00 0.00 86 1008.9
20260903190553 70 27 3.0 3.0 0.00 0.00 0.00 86 1008.9
20260903190053 71 326 4.0 5.0 0.00 0.00 0.00 85 1009.3
20260903185548 71 299 3.0 3.0 0.00 0.00 0.00 85 1009.0
20260903185044 71 31 1.0 2.0 0.00 0.00 0.00 86 1008.8
20260903184540 71 43 3.0 5.0 0.00 0.00 0.00 86 1008.7
20260903184035 71 26 2.0 2.0 0.00 0.00 0.00 86 1008.7
20260903183534 71 35 1.0 1.0 0.00 0.00 0.00 85 1008.7
20260903183029 71 45 2.0 2.0 0.00 0.00 0.00 86 1008.9
20260903182527 70 124 3.0 3.0 0.00 0.00 0.00 86 1008.8
20260903182024 70 42 3.0 3.0 0.00 0.00 0.00 86 1008.4
20260903181517 71 55 5.0 6.0 0.00 0.00 0.00 86 1008.2
20260903181017 70 49 5.0 6.0 0.00 0.00 0.00 87 1008.2
20260903180513 69 60 3.0 3.0 0.00 0.00 0.00 88 1008.3
20260903180007 69 52 3.0 5.0 0.00 0.00 0.00 89 1008.1
20260903175506 68 48 5.0 6.0 0.00 0.00 0.00 89 1008.2
20260903175005 68 74 6.0 7.0 0.00 0.00 0.00 90 1008.2
20260903174500 67 44 4.0 5.0 0.00 0.00 0.00 91 1008.3
20260903174000 66 32 5.0 6.0 0.00 0.00 0.00 92 1008.0
20260903173455 66 39 6.0 8.0 0.00 0.00 0.00 92 1008.1
20260903172950 66 47 8.0 10.0 0.00 0.00 0.00 93 1007.8
20260903172445 66 37 7.0 11.0 0.00 0.00 0.00 93 1007.8
20260903171941 65 47 8.0 10.0 0.00 0.00 0.00 93 1007.5
20260903171431 65 13 5.0 7.0 0.00 0.00 0.00 92 1007.8
20260903170931 66 24 6.0 8.0 0.00 0.00 0.00 91 1007.8
20260903170425 67 12 6.0 7.0 0.00 0.00 0.00 90 1007.8
20260903165924 69 22 4.0 6.0 0.00 0.00 0.00 90 1007.4
20260903165418 68 43 2.0 2.0 0.00 0.00 0.00 90 1007.5
20260903164913 69 356 2.0 2.0 0.00 0.00 0.00 90 1007.5
20260903164408 68 65 2.0 2.0 0.00 0.00 0.00 90 1007.6
20260903163908 69 33 2.0 2.0 0.00 0.00 0.00 89 1007.5
20260903163404 68 22 3.0 3.0 0.00 0.00 0.00 89 1007.5
20260903162900 68 32 2.0 2.0 0.00 0.00 0.00 89 1007.6
20260903162356 69 60 2.0 2.0 0.00 0.00 0.00 89 1007.4
20260903161852 69 43 3.0 3.0 0.00 0.00 0.00 89 1007.1
20260903161347 69 63 3.0 3.0 0.00 0.00 0.00 89 1006.8
20260903160843 68 60 5.0 6.0 0.00 0.00 0.00 89 1006.8
20260903160341 68 55 3.0 3.0 0.00 0.00 0.00 89 1006.8
20260903155840 68 51 3.0 5.0 0.00 0.00 0.00 89 1006.8
20260903155335 68 33 5.0 6.0 0.00 0.00 0.00 89 1006.6
20260903154831 68 25 7.0 8.0 0.00 0.00 0.00 89 1006.8
20260903154327 68 75 3.0 3.0 0.00 0.00 0.00 89 1006.6
20260903153822 68 59 4.0 5.0 0.00 0.00 0.00 89 1006.4
20260903153318 68 97 3.0 5.0 0.00 0.00 0.00 89 1006.3
20260903152815 68 69 5.0 6.0 0.00 0.00 0.00 89 1006.2
20260903152310 67 88 4.0 5.0 0.00 0.00 0.00 90 1006.2
20260903151810 67 62 4.0 6.0 0.00 0.00 0.00 90 1006.2
20260903151305 67 105 5.0 5.0 0.00 0.00 0.00 90 1006.3
20260903150759 67 52 3.0 5.0 0.00 0.00 0.00 90 1006.4
20260903150253 67 74 6.0 9.0 0.00 0.00 0.00 90 1006.5
20260903145750 67 79 5.0 7.0 0.00 0.00 0.00 90 1006.7
20260903145245 66 68 4.0 7.0 0.00 0.00 0.00 90 1006.7
20260903144743 66 71 3.0 3.0 0.00 0.00 0.00 91 1006.8
20260903144239 66 50 8.0 9.0 0.00 0.00 0.00 90 1006.9
20260903143735 66 64 5.0 7.0 0.00 0.00 0.00 90 1007.0
20260903143231 66 53 3.0 6.0 0.00 0.00 0.00 90 1007.1
20260903142727 66 45 6.0 7.0 0.00 0.00 0.00 90 1007.1
20260903142223 66 28 5.0 7.0 0.00 0.00 0.00 90 1007.2
20260903141717 66 56 5.0 6.0 0.00 0.00 0.00 89 1007.5
20260903141213 66 32 3.0 3.0 0.00 0.00 0.00 89 1007.6
20260903140708 66 42 4.0 5.0 0.00 0.00 0.00 89 1007.8
20260903140203 65 62 3.0 3.0 0.00 0.00 0.00 89 1007.8
20260903135659 65 53 2.0 2.0 0.00 0.00 0.00 89 1007.8
20260903135154 65 47 3.0 3.0 0.00 0.00 0.00 89 1008.0
20260903134653 64 13 2.0 2.0 0.00 0.00 0.00 89 1008.0
20260903134149 64 45 2.0 2.0 0.00 0.00 0.00 89 1007.7
20260903133646 64 58 0.0 1.0 0.00 0.00 0.00 89 1007.6
20260903133142 64 86 2.0 2.0 0.00 0.00 0.00 89 1007.4
20260903132636 64 56 2.0 2.0 0.00 0.00 0.00 89 1007.1
20260903132131 64 96 1.0 1.0 0.00 0.00 0.00 89 1007.5
20260903131626 64 155 4.0 5.0 0.00 0.00 0.00 89 1007.0
20260903131125 64 102 6.0 8.0 0.00 0.00 0.00 89 1006.7
20260903130620 63 79 8.0 10.0 0.00 0.00 0.00 89 1006.6
20260903130114 63 74 10.0 11.0 0.00 0.00 0.00 89 1006.2
20260903125613 63 73 11.0 13.0 0.00 0.00 0.00 89 1006.2
20260903125103 63 56 9.0 11.0 0.00 0.00 0.00 89 1006.1
20260903124602 63 84 11.0 13.0 0.00 0.00 0.00 89 1006.1
20260903124057 63 70 9.0 11.0 0.00 0.00 0.00 89 1006.4
20260903123556 63 110 7.0 8.0 0.00 0.00 0.00 88 1006.2
20260903123054 63 96 8.0 10.0 0.00 0.00 0.00 89 1006.3
20260903122549 63 78 9.0 11.0 0.00 0.00 0.00 88 1006.1
20260903122048 63 95 7.0 8.0 0.00 0.00 0.00 88 1006.4
20260903121543 62 126 8.0 9.0 0.00 0.00 0.00 88 1006.4
20260903121039 62 100 7.0 10.0 0.00 0.00 0.00 88 1006.3
20260903120538 62 83 7.0 10.0 0.00 0.00 0.00 87 1006.3
20260903120033 62 114 5.0 6.0 0.00 0.00 0.00 87 1006.4
20260903115531 62 96 6.0 8.0 0.00 0.00 0.00 87 1006.4
20260903115026 62 102 6.0 8.0 0.00 0.00 0.00 86 1006.3
20260903114521 62 78 8.0 10.0 0.00 0.00 0.00 86 1006.5
20260903114017 62 75 6.0 8.0 0.00 0.00 0.00 86 1006.7
20260903113513 62 85 5.0 6.0 0.00 0.00 0.00 85 1006.8
20260903113009 62 87 4.0 6.0 0.00 0.00 0.00 85 1007.0
20260903112503 62 57 4.0 5.0 0.00 0.00 0.00 85 1007.0
20260903112003 62 83 4.0 6.0 0.00 0.00 0.00 84 1006.8
20260903111457 62 86 3.0 3.0 0.00 0.00 0.00 84 1006.8
20260903110954 62 93 3.0 3.0 0.00 0.00 0.00 84 1006.8
20260903110449 62 105 5.0 6.0 0.00 0.00 0.00 84 1006.5
20260903105943 62 66 7.0 9.0 0.00 0.00 0.00 83 1006.2
20260903105439 62 92 5.0 6.0 0.00 0.00 0.00 83 1006.4
20260903104938 62 134 6.0 8.0 0.00 0.00 0.00 82 1006.5
20260903104438 63 108 5.0 7.0 0.00 0.00 0.00 82 1006.6
20260903103935 63 83 9.0 10.0 0.00 0.00 0.00 82 1006.4
20260903103430 62 79 5.0 7.0 0.00 0.00 0.00 82 1006.7
20260903102926 63 98 7.0 8.0 0.00 0.00 0.00 81 1006.7
20260903102421 63 114 7.0 8.0 0.00 0.00 0.00 80 1006.8
20260903101920 63 80 4.0 7.0 0.00 0.00 0.00 80 1006.7
20260903101415 63 73 9.0 10.0 0.00 0.00 0.00 80 1006.7
20260903100910 63 91 6.0 8.0 0.00 0.00 0.00 80 1006.5
20260903100406 63 73 9.0 13.0 0.00 0.00 0.00 79 1006.7
20260903095902 64 90 8.0 11.0 0.00 0.00 0.00 78 1006.6
20260903095356 64 99 6.0 7.0 0.00 0.00 0.00 78 1006.7
20260903094851 64 96 8.0 9.0 0.00 0.00 0.00 77 1006.9
20260903094346 64 82 10.0 13.0 0.00 0.00 0.00 77 1006.9
20260903093842 64 134 5.0 5.0 0.00 0.00 0.00 77 1007.0
20260903093337 64 77 6.0 6.0 0.00 0.00 0.00 77 1006.9
20260903092832 64 120 11.0 15.0 0.00 0.00 0.00 77 1007.0
20260903092327 64 102 10.0 11.0 0.00 0.00 0.00 76 1006.8
20260903091825 64 77 11.0 14.0 0.00 0.00 0.00 76 1006.9
20260903091319 64 60 10.0 14.0 0.00 0.00 0.00 76 1006.9
20260903090815 64 57 7.0 10.0 0.00 0.00 0.00 76 1006.7
20260903090315 64 128 11.0 15.0 0.00 0.00 0.00 76 1007.0
20260903085813 64 111 11.0 15.0 0.00 0.00 0.00 75 1007.0
20260903085308 64 70 11.0 14.0 0.00 0.00 0.00 75 1007.2
20260903084806 64 88 8.0 10.0 0.00 0.00 0.00 75 1007.5
20260903084300 64 105 9.0 11.0 0.00 0.00 0.00 75 1007.4
20260903083755 64 83 11.0 14.0 0.00 0.00 0.00 75 1007.2
20260903083250 64 93 8.0 9.0 0.00 0.00 0.00 74 1007.6
20260903082749 65 95 6.0 9.0 0.00 0.00 0.00 74 1007.7
20260903082245 65 73 7.0 9.0 0.00 0.00 0.00 73 1007.7
20260903081745 65 90 9.0 11.0 0.00 0.00 0.00 72 1007.7
20260903081241 66 103 8.0 9.0 0.00 0.00 0.00 72 1007.8
20260903080737 66 79 12.0 15.0 0.00 0.00 0.00 72 1007.8
20260903080235 66 73 7.0 9.0 0.00 0.00 0.00 71 1007.7
20260903075734 66 78 14.0 17.0 0.00 0.00 0.00 70 1007.7
20260903075229 66 89 10.0 14.0 0.00 0.00 0.00 70 1008.3
20260903074728 66 93 7.0 9.0 0.00 0.00 0.00 70 1008.3
20260903074223 66 81 12.0 15.0 0.00 0.00 0.00 70 1008.7
20260903073718 67 50 7.0 9.0 0.00 0.00 0.00 70 1008.5
20260903073214 67 66 9.0 13.0 0.00 0.00 0.00 69 1008.7
20260903072709 67 82 8.0 9.0 0.00 0.00 0.00 68 1008.4
20260903072206 68 78 8.0 11.0 0.00 0.00 0.00 68 1008.7
20260903071702 68 74 8.0 13.0 0.00 0.00 0.00 68 1008.9
20260903071157 68 80 5.0 6.0 0.00 0.00 0.00 67 1009.0
20260903070657 68 82 8.0 10.0 0.00 0.00 0.00 67 1009.0
20260903070153 68 75 8.0 10.0 0.00 0.00 0.00 67 1009.2
20260903065647 68 105 9.0 10.0 0.00 0.00 0.00 66 1009.3
20260903065147 68 93 12.0 16.0 0.00 0.00 0.00 67 1009.4
20260903064646 68 85 7.0 10.0 0.00 0.00 0.00 67 1009.3
20260903064142 68 87 10.0 11.0 0.00 0.00 0.00 68 1009.5
20260903063638 68 74 7.0 9.0 0.00 0.00 0.00 68 1009.6
20260903063138 67 73 7.0 8.0 0.00 0.00 0.00 69 1009.5
20260903062634 67 117 7.0 9.0 0.00 0.00 0.00 70 1009.7
20260903062129 67 70 8.0 10.0 0.00 0.00 0.00 70 1009.7
20260903061624 67 91 7.0 8.0 0.00 0.00 0.00 70 1009.8
20260903061123 68 131 7.0 8.0 0.00 0.00 0.00 69 1009.6
20260903060618 68 84 7.0 8.0 0.00 0.00 0.00 69 1009.6
20260903060114 68 81 8.0 10.0 0.00 0.00 0.00 69 1009.8
20260903055611 68 81 7.0 8.0 0.00 0.00 0.00 69 1010.1
20260903055109 68 93 7.0 9.0 0.00 0.00 0.00 69 1010.1
20260903054604 69 87 7.0 8.0 0.00 0.00 0.00 68 1010.0
20260903054101 69 104 7.0 9.0 0.00 0.00 0.00 68 1009.8
20260903053556 69 104 9.0 11.0 0.00 0.00 0.00 68 1009.9
20260903053052 69 113 8.0 9.0 0.00 0.00 0.00 68 1009.9
20260903052548 69 59 8.0 9.0 0.00 0.00 0.00 68 1010.0
20260903052043 69 113 6.0 7.0 0.00 0.00 0.00 69 1010.2
20260903051542 68 104 8.0 10.0 0.00 0.00 0.00 69 1010.2
20260903051038 68 63 7.0 10.0 0.00 0.00 0.00 70 1010.2
20260903050537 68 83 9.0 9.0 0.00 0.00 0.00 71 1010.2
20260903050033 68 80 6.0 7.0 0.00 0.00 0.00 71 1010.4
20260903045532 68 94 9.0 11.0 0.00 0.00 0.00 72 1010.3
20260903045029 67 64 7.0 9.0 0.00 0.00 0.00 72 1010.3
20260903044525 68 57 8.0 10.0 0.00 0.00 0.00 72 1010.2
20260903044020 68 76 8.0 9.0 0.00 0.00 0.00 71 1010.3
20260903043516 68 103 11.0 13.0 0.00 0.00 0.00 70 1010.0
20260903043015 68 57 8.0 10.0 0.00 0.00 0.00 70 1010.2
20260903042510 68 84 7.0 9.0 0.00 0.00 0.00 70 1010.3
20260903042006 68 59 8.0 11.0 0.00 0.00 0.00 71 1010.5
20260903041502 67 58 8.0 10.0 0.00 0.00 0.00 71 1010.3
20260903040957 67 75 7.0 10.0 0.00 0.00 0.00 71 1010.4
20260903040456 67 58 5.0 6.0 0.00 0.00 0.00 71 1010.5
20260903035953 67 71 8.0 9.0 0.00 0.00 0.00 71 1010.5
20260903035448 67 67 10.0 13.0 0.00 0.00 0.00 71 1010.4
20260903034943 68 94 9.0 13.0 0.00 0.00 0.00 71 1010.7
20260903034438 68 72 8.0 10.0 0.00 0.00 0.00 70 1010.5
20260903033933 68 75 6.0 8.0 0.00 0.00 0.00 70 1010.6
20260903033428 68 54 7.0 8.0 0.00 0.00 0.00 69 1010.7
20260903032923 68 62 7.0 9.0 0.00 0.00 0.00 70 1010.7